NE1NH Weather Reports


time (UTC)temp
F
wind
direction
speed
knots
gust
knots
rain 1hr
in
rain 24hr
in
rain mn
in
humidity
%
barometer
mb
20260502214008 50 109 0.0 0.0 0.00 0.07 0.07 87 1009.9
20260502213505 50 106 0.0 0.0 0.00 0.07 0.07 87 1009.9
20260502213019 50 360 0.0 0.0 0.00 0.07 0.07 89 1010.0
20260502212508 50 360 0.0 0.0 0.00 0.07 0.07 89 1010.0
20260502212007 49 360 0.0 0.0 0.00 0.07 0.07 89 1009.9
20260502211532 49 323 0.0 0.0 0.01 0.07 0.07 89 1010.0
20260502211012 49 224 0.0 0.0 0.01 0.07 0.07 89 1010.0
20260502210507 49 224 0.0 0.0 0.02 0.07 0.07 90 1010.0
20260502210023 48 224 0.0 0.0 0.02 0.07 0.07 89 1010.0
20260502205511 48 224 0.0 0.0 0.02 0.07 0.07 89 1010.0
20260502205011 49 222 0.0 0.0 0.02 0.07 0.07 90 1010.2
20260502204510 49 222 0.0 1.7 0.02 0.07 0.07 90 1010.1
20260502204005 48 223 0.0 1.7 0.02 0.07 0.07 89 1010.1
20260502203506 48 223 0.0 1.7 0.02 0.07 0.07 89 1010.1
20260502203018 48 222 0.0 2.6 0.02 0.07 0.07 89 1010.2
20260502202504 48 290 0.0 3.5 0.02 0.07 0.07 88 1010.2
20260502202007 48 286 0.0 3.5 0.02 0.07 0.07 87 1010.2
20260502201519 48 279 0.9 7.0 0.01 0.06 0.06 86 1010.2
20260502201010 48 236 1.7 7.8 0.01 0.06 0.06 82 1010.3
20260502200507 50 254 3.5 8.7 0.00 0.05 0.05 79 1010.4
20260502200025 52 290 5.2 8.7 0.00 0.05 0.05 73 1010.4
20260502195509 54 273 5.2 8.7 0.00 0.05 0.05 69 1010.2
20260502195008 54 233 1.7 3.5 0.00 0.05 0.05 68 1010.0
20260502194524 55 216 1.7 3.5 0.00 0.05 0.05 67 1009.9
20260502194007 55 222 0.9 4.3 0.00 0.05 0.05 67 1009.9
20260502193504 55 255 0.9 4.3 0.00 0.05 0.05 68 1009.9
20260502193014 55 205 2.6 4.3 0.00 0.05 0.05 66 1010.0
20260502192507 55 232 0.9 3.5 0.00 0.05 0.05 68 1010.0
20260502192008 56 163 0.9 3.5 0.00 0.05 0.05 66 1010.2
20260502191522 56 157 1.7 3.5 0.00 0.05 0.05 62 1010.2
20260502191009 57 213 0.9 3.5 0.00 0.05 0.05 66 1010.2
20260502190509 56 169 0.9 6.1 0.00 0.05 0.05 67 1010.3
20260502190023 55 255 1.7 6.1 0.00 0.05 0.05 66 1010.3
20260502185512 55 167 0.9 3.5 0.00 0.05 0.05 66 1010.3
20260502185008 55 196 1.7 2.6 0.00 0.05 0.05 67 1010.3
20260502184525 55 12 0.0 2.6 0.00 0.05 0.05 64 1010.3
20260502184007 56 55 0.0 5.2 0.00 0.05 0.05 63 1010.4
20260502183509 55 179 0.9 5.2 0.00 0.05 0.05 65 1010.4
20260502183028 55 170 1.7 5.2 0.00 0.05 0.05 65 1010.4
20260502182509 55 136 2.6 7.0 0.00 0.05 0.05 62 1010.3
20260502182011 55 80 1.7 7.8 0.00 0.05 0.05 62 1010.3
20260502181519 56 116 2.6 7.8 0.00 0.05 0.05 63 1010.3
20260502181005 55 238 1.7 7.0 0.00 0.05 0.05 67 1010.3
20260502180505 55 184 2.6 7.8 0.00 0.05 0.05 65 1010.4
20260502170504 54 284 0.9 5.2 0.00 0.05 0.05 66 1011.1
20260502164001 53 205 0.0 2.6 0.00 0.05 0.05 74 1011.2
20260502163501 53 228 0.9 2.6 0.00 0.05 0.05 75 1011.1
20260502163005 52 232 0.0 2.6 0.00 0.05 0.05 78 1011.2
20260502162500 52 269 0.9 1.7 0.00 0.05 0.05 81 1011.3
20260502162002 52 173 0.0 1.7 0.00 0.05 0.05 78 1011.3
20260502161506 52 163 0.0 1.7 0.00 0.05 0.05 79 1011.4
20260502161001 52 82 0.0 1.7 0.00 0.05 0.05 80 1011.4
20260502160503 52 52 0.0 1.7 0.00 0.05 0.05 81 1011.4
20260502152002 51 138 0.9 2.6 0.00 0.05 0.05 83 1012.1
20260502151505 51 92 0.0 4.3 0.00 0.05 0.05 87 1011.7
20260502151002 50 177 1.7 4.3 0.00 0.05 0.05 87 1011.8
20260502150502 50 352 0.9 2.6 0.00 0.05 0.05 87 1011.9
20260502130505 46 205 0.0 0.0 0.04 0.04 0.04 90 1012.6
20260502123505 46 239 0.0 0.0 0.01 0.01 0.01 88 1013.0
20260502123018 46 239 0.0 0.0 0.00 0.00 0.00 87 1013.0
20260502122508 47 255 0.0 2.6 0.00 0.00 0.00 87 1012.9
20260502122006 47 240 0.0 3.5 0.00 0.00 0.00 86 1012.9
20260502121512 47 240 0.9 3.5 0.00 0.00 0.00 86 1012.8
20260502121007 47 236 1.7 3.5 0.00 0.00 0.00 87 1012.9
20260502120504 47 283 1.7 2.6 0.00 0.00 0.00 87 1012.9
20260502115507 47 197 0.0 1.7 0.00 0.00 0.00 88 1012.4
20260502115004 46 240 0.9 1.7 0.00 0.00 0.00 88 1012.3
20260502114512 46 281 0.9 1.7 0.00 0.00 0.00 88 1012.2
20260502114004 46 292 0.0 1.7 0.00 0.00 0.00 87 1012.0
20260502113506 46 272 0.9 1.7 0.00 0.00 0.00 88 1011.8
20260502113017 46 309 0.9 1.7 0.00 0.00 0.00 88 1011.8
20260502112504 46 196 0.0 1.7 0.00 0.00 0.00 88 1011.8
20260502112004 46 196 0.0 0.9 0.00 0.00 0.00 87 1012.0
20260502111512 46 196 0.0 0.0 0.00 0.00 0.00 86 1012.1
20260502111004 0 0.0 0.0 0.00 0.00 0.00 1012.3
20260502110507 0 0.0 0.0 0.00 0.00 0.00 1012.3
20260502110008 0 0.0 0.0 0.00 0.00 0.00 1012.0
20260502105507 0 0.0 0.0 0.00 0.00 0.00 1012.0
20260502105003 0 0.0 0.0 0.00 0.00 0.00 1011.9
20260502104534 0 0.0 0.0 0.00 0.00 0.00 1011.7
20260502104004 0 0.0 0.0 0.00 0.00 0.00 1011.6
20260502103504 0 0.0 0.0 0.00 0.00 0.00 1011.7
20260502103014 0 0.0 0.0 0.00 0.00 0.00 1011.6
20260502102502 0 0.0 0.0 0.00 0.00 0.00 1011.5
20260502102008 0 0.0 0.0 0.00 0.00 0.00 1011.4
20260502101516 0 0.0 0.0 0.00 0.00 0.00 1011.3
20260502101007 0 0.0 0.0 0.00 0.00 0.00 1011.4
20260502100507 0 0.0 0.0 0.00 0.00 0.00 1011.4
20260502091524 0 0.0 0.0 0.00 0.00 0.00 1011.3
20260502091009 0 0.0 0.0 0.00 0.00 0.00 1011.5
20260502090504 0 0.0 0.0 0.00 0.00 0.00 1011.3
20260502071004 48 13 0.0 1.7 0.00 0.00 0.00 73 1011.2
20260502070507 48 281 0.0 1.7 0.00 0.00 0.00 72 1011.3
20260502070026 48 227 0.0 0.9 0.00 0.00 0.00 71 1011.3
20260502065501 48 221 0.0 0.0 0.00 0.00 0.00 72 1011.4
20260502065001 48 240 0.0 0.0 0.00 0.00 0.00 71 1011.3
20260502064510 49 158 0.0 0.0 0.00 0.00 0.00 72 1011.4
20260502064004 49 195 0.0 0.0 0.00 0.00 0.00 71 1011.6
20260502063504 49 195 0.0 0.0 0.00 0.00 0.00 72 1011.7
20260502063013 49 90 0.0 1.7 0.00 0.00 0.00 71 1011.5
20260502062503 49 178 0.0 1.7 0.00 0.00 0.00 70 1011.6
20260502062006 49 237 0.0 2.6 0.00 0.00 0.00 69 1011.6
20260502061515 49 237 0.0 2.6 0.00 0.00 0.00 69 1011.7
20260502061003 49 233 0.9 2.6 0.00 0.00 0.00 68 1011.7
20260502060507 49 242 0.0 1.7 0.00 0.00 0.00 68 1011.6
20260502060020 49 201 0.9 1.7 0.00 0.00 0.00 67 1011.6
20260502055504 49 163 0.0 0.0 0.00 0.00 0.00 66 1011.5
20260502055010 49 163 0.0 0.0 0.00 0.00 0.00 66 1011.6
20260502054522 49 163 0.0 1.7 0.00 0.00 0.00 66 1011.6
20260502054003 49 163 0.0 1.7 0.00 0.00 0.00 66 1011.6
20260502053503 49 157 0.0 1.7 0.00 0.00 0.00 64 1011.5
20260502053008 49 157 0.0 0.9 0.00 0.00 0.00 66 1011.6
20260502052503 49 156 0.0 1.7 0.00 0.00 0.00 64 1011.6
20260502052002 49 156 0.0 1.7 0.00 0.00 0.00 64 1011.6
20260502051529 49 156 0.0 1.7 0.00 0.00 0.00 63 1011.7
20260502051003 49 156 0.0 1.7 0.00 0.00 0.00 64 1011.7
20260502050503 50 157 0.0 1.7 0.00 0.00 0.00 64 1011.8
20260502050016 50 157 0.0 1.7 0.00 0.00 0.00 62 1011.7
20260502045504 50 157 0.0 1.7 0.00 0.00 0.00 62 1011.7
20260502045007 50 157 0.0 1.7 0.00 0.00 0.00 62 1011.7
20260502044524 50 161 0.0 1.7 0.00 0.00 0.00 62 1011.7
20260502044008 50 124 0.0 1.7 0.00 0.00 0.00 61 1011.7
20260502043507 49 123 0.9 1.7 0.00 0.00 0.00 61 1011.7
20260502043026 49 134 0.0 1.7 0.00 0.00 0.00 61 1011.8
20260502042504 49 135 0.0 1.7 0.00 0.00 0.00 61 1011.8
20260502042003 49 140 0.0 1.7 0.00 0.00 0.00 61 1011.7
20260502041508 50 178 0.0 1.7 0.00 0.00 0.00 60 1011.7
20260502041004 50 182 0.0 1.7 0.00 0.00 0.00 60 1011.8
20260502040503 50 226 0.0 1.7 0.00 0.00 0.00 59 1011.8
20260502040016 50 226 0.0 1.7 0.00 0.00 0.00 58 1011.8
20260502035506 50 204 0.0 1.7 0.00 0.00 0.00 58 1011.9
20260502035006 50 213 0.0 0.0 0.00 0.00 0.00 57 1011.8
20260502034534 50 215 0.0 0.0 0.00 0.00 0.00 56 1011.8
20260502034004 50 229 0.0 0.0 0.00 0.00 0.00 55 1011.8
20260502033509 51 211 0.0 0.0 0.00 0.00 0.00 55 1011.8
20260502033030 51 211 0.0 0.0 0.00 0.00 0.00 55 1011.8
20260502032507 51 211 0.0 0.0 0.00 0.00 0.00 55 1011.8
20260502032010 51 211 0.0 0.9 0.00 0.00 0.00 54 1011.9
20260502031508 51 211 0.0 1.7 0.00 0.00 0.00 54 1011.9
20260502031004 51 232 0.9 1.7 0.00 0.00 0.00 53 1011.9
20260502030503 51 211 0.9 1.7 0.00 0.00 0.00 52 1011.9
20260502030012 51 203 0.0 1.7 0.00 0.00 0.00 52 1011.8
20260502025503 50 203 0.0 1.7 0.00 0.00 0.00 52 1011.8
20260502025003 50 203 0.0 1.7 0.00 0.00 0.00 51 1011.7
20260502024516 50 196 0.0 1.7 0.00 0.00 0.00 52 1011.7
20260502024007 50 167 0.0 1.7 0.00 0.00 0.00 52 1011.6
20260502023507 50 167 0.9 1.7 0.00 0.00 0.00 50 1011.6
20260502023020 50 180 0.0 1.7 0.00 0.00 0.00 51 1011.7
20260502022506 49 161 0.0 1.7 0.00 0.00 0.00 52 1011.7
20260502022007 50 178 0.9 1.7 0.00 0.00 0.00 52 1011.7
20260502021524 50 163 0.0 1.7 0.00 0.00 0.00 48 1011.6
20260502021008 50 142 0.0 0.0 0.00 0.00 0.00 48 1011.5
20260502020507 50 143 0.0 0.0 0.00 0.00 0.00 47 1011.5
20260502020008 50 143 0.0 0.0 0.00 0.00 0.00 47 1011.5
20260502015505 50 143 0.0 0.0 0.00 0.00 0.00 48 1011.5
20260502015009 50 143 0.0 0.0 0.00 0.00 0.00 47 1011.4
20260502014522 50 143 0.0 0.0 0.00 0.00 0.00 48 1011.4
20260502014004 51 143 0.0 0.0 0.00 0.00 0.00 48 1011.4
20260502013504 51 143 0.0 0.0 0.00 0.00 0.00 43 1011.3
20260502013016 51 143 0.0 0.0 0.00 0.00 0.00 44 1011.4
20260502012507 51 143 0.0 0.0 0.00 0.00 0.00 45 1011.4
20260502012009 51 143 0.0 0.0 0.00 0.00 0.00 46 1011.4
20260502011529 52 143 0.0 0.0 0.00 0.00 0.00 44 1011.4
20260502011008 52 143 0.0 0.0 0.00 0.00 0.00 43 1011.3
20260502010508 52 143 0.0 1.7 0.00 0.00 0.00 42 1011.2
20260502010023 53 143 0.0 1.7 0.00 0.00 0.00 42 1011.2
20260502005511 53 143 0.9 1.7 0.00 0.00 0.00 42 1011.1
20260502005010 53 150 0.9 1.7 0.00 0.00 0.00 41 1011.1
20260502004513 53 182 0.0 1.7 0.00 0.00 0.00 40 1011.1
20260502004007 54 205 0.9 1.7 0.00 0.00 0.00 41 1011.0
20260502003503 54 216 0.9 1.7 0.00 0.00 0.00 40 1011.0
20260502003022 55 219 0.0 1.7 0.00 0.00 0.00 36 1010.9
20260502002508 56 244 0.9 1.7 0.00 0.00 0.00 35 1010.9
20260502002011 56 240 0.9 1.7 0.00 0.00 0.00 35 1010.7
20260502001524 56 243 0.9 2.6 0.00 0.00 0.00 34 1010.5
20260502001007 56 249 0.9 2.6 0.00 0.00 0.00 34 1010.4
20260502000510 56 214 1.7 2.6 0.00 0.00 0.00 33 1010.4
20260502000029 56 236 0.9 2.6 0.00 0.00 0.00 34 1010.4
20260501235511 57 246 0.9 2.6 0.00 0.00 0.00 33 1010.4
20260501235007 57 244 0.9 3.5 0.00 0.00 0.00 33 1010.3
20260501234531 57 245 1.7 3.5 0.00 0.00 0.00 33 1010.2
20260501234009 57 263 0.9 2.6 0.00 0.00 0.00 32 1010.1
20260501233507 57 279 0.9 3.5 0.00 0.00 0.00 33 1010.0
20260501233013 58 238 0.9 3.5 0.00 0.00 0.00 33 1009.9
20260501232508 58 295 1.7 7.0 0.00 0.00 0.00 32 1009.9
20260501232005 59 268 2.6 7.0 0.00 0.00 0.00 31 1009.8
20260501231532 59 248 1.7 7.0 0.00 0.00 0.00 31 1009.8
20260501231007 59 246 2.6 5.2 0.00 0.00 0.00 32 1009.7
20260501230508 59 256 1.7 4.3 0.00 0.00 0.00 32 1009.7
20260501230024 59 270 0.9 3.5 0.00 0.00 0.00 34 1009.6
20260501225508 60 275 1.7 2.6 0.00 0.00 0.00 32 1009.6
20260501225007 60 236 0.9 2.6 0.00 0.00 0.00 32 1009.6
20260501224527 59 261 0.0 2.6 0.00 0.00 0.00 31 1009.5
20260501224006 60 289 1.7 2.6 0.00 0.00 0.00 32 1009.5
20260501223510 60 286 0.9 3.5 0.00 0.00 0.00 32 1009.5
20260501223028 60 297 1.7 5.2 0.00 0.00 0.00 33 1009.6
20260501222511 60 244 2.6 7.0 0.00 0.00 0.00 32 1009.6
20260501222008 60 211 1.7 7.0 0.00 0.00 0.00 31 1009.6
20260501221517 60 267 2.6 4.3 0.00 0.00 0.00 31 1009.6
20260501221008 60 290 1.7 4.3 0.00 0.00 0.00 32 1009.5
20260501220507 60 269 2.6 5.2 0.00 0.00 0.00 30 1009.5
20260501220022 60 207 1.7 6.1 0.00 0.00 0.00 31 1009.4
20260501215509 61 250 1.7 6.1 0.00 0.00 0.00 31 1009.5
20260501215007 61 272 3.5 7.0 0.00 0.00 0.00 31 1009.5
20260501214535 61 244 2.6 7.0 0.00 0.00 0.00 31 1009.4